Location: Erfurt
(50.9688°N, 11.0193°E)
Time: 02:44:19
(UTC+01:00)

ISS - Pass Details

Date: 10 January 2018
Orbit: 402 x 407 km, 51.6° (Epoch: 23 January)

Event Time Altitude Azimuth Distance (km) Brightness Sun altitude
Exits shadow 04:58:09 14° 89° (E) 1,262 -0.5 -30.2°
Drops below altitude 10° 04:58:40 10° 89° (E) 1,469 -0.1 -30.1°
Sets 05:00:45 0° 91° (E) 2,330 1.2 -29.8°
